Time,TemperatureF,DewpointF,PressureIn,WindDirection,WindDirectionDegrees,WindSpeedMPH,WindSpeedGustMPH,Humidity,HourlyPrecipIn,Conditions,Clouds,dailyrainin,SoftwareType,DateUTC
2013-12-14 00:02:00,35.7,33.1,29.85,ENE,78,0.0,2.0,90,0.10,,---,0.28,VWS V14.01,2013-12-14 06:02:00,
2013-12-14 00:07:00,35.7,33.1,29.85,ENE,78,0.0,0.0,90,0.09,,---,0.01,VWS V14.01,2013-12-14 06:07:00,
2013-12-14 00:12:00,35.7,33.1,29.85,ENE,78,0.0,0.0,90,0.10,,---,0.02,VWS V14.01,2013-12-14 06:12:00,
2013-12-14 00:17:00,35.7,33.1,29.86,ENE,78,0.0,0.0,90,0.10,,---,0.02,VWS V14.01,2013-12-14 06:17:00,
2013-12-14 00:22:00,35.7,33.3,29.86,ENE,78,0.0,0.0,91,0.11,,---,0.03,VWS V14.01,2013-12-14 06:22:00,
2013-12-14 00:27:00,35.7,33.3,29.86,ENE,78,0.0,0.0,91,0.12,,---,0.04,VWS V14.01,2013-12-14 06:27:00,
2013-12-14 00:31:00,35.6,33.2,29.86,ENE,78,0.0,0.0,91,0.13,,---,0.05,VWS V14.01,2013-12-14 06:31:00,
2013-12-14 00:36:00,35.7,33.3,29.86,ENE,78,0.0,0.0,91,0.09,,---,0.06,VWS V14.01,2013-12-14 06:36:00,
2013-12-14 00:42:00,35.7,33.3,29.86,ENE,78,0.0,0.0,91,0.11,,---,0.08,VWS V14.01,2013-12-14 06:42:00,
2013-12-14 00:47:00,35.7,33.3,29.85,ENE,77,0.0,0.0,91,0.12,,---,0.09,VWS V14.01,2013-12-14 06:47:00,
2013-12-14 00:51:00,35.7,33.6,29.85,ENE,78,0.0,0.0,92,0.13,,---,0.10,VWS V14.01,2013-12-14 06:51:00,
2013-12-14 00:56:00,35.7,33.6,29.85,ENE,78,0.0,0.0,92,0.14,,---,0.11,VWS V14.01,2013-12-14 06:56:00,
2013-12-14 01:02:00,35.7,33.6,29.84,ENE,78,0.0,1.0,92,0.15,,---,0.12,VWS V14.01,2013-12-14 07:02:00,
2013-12-14 01:06:00,35.7,33.6,29.84,ENE,78,0.0,1.0,92,0.13,,---,0.13,VWS V14.01,2013-12-14 07:06:00,
2013-12-14 01:11:00,35.6,33.5,29.84,ENE,78,0.0,1.0,92,0.14,,---,0.14,VWS V14.01,2013-12-14 07:11:00,
2013-12-14 01:16:00,35.6,33.5,29.83,ENE,78,0.0,3.0,92,0.15,,---,0.15,VWS V14.01,2013-12-14 07:16:00,
2013-12-14 01:21:00,35.6,33.5,29.83,ENE,78,0.0,3.0,92,0.16,,---,0.16,VWS V14.01,2013-12-14 07:21:00,
2013-12-14 01:26:00,35.5,33.4,29.83,ENE,78,0.0,3.0,92,0.17,,---,0.17,VWS V14.01,2013-12-14 07:26:00,
2013-12-14 01:31:00,35.6,33.5,29.83,ENE,77,0.0,3.0,92,0.18,,---,0.18,VWS V14.01,2013-12-14 07:31:00,
2013-12-14 01:36:00,35.6,33.8,29.83,ENE,78,0.0,3.0,93,0.14,,---,0.20,VWS V14.01,2013-12-14 07:36:00,
2013-12-14 01:41:00,35.7,33.9,29.83,ENE,77,0.0,3.0,93,0.15,,---,0.21,VWS V14.01,2013-12-14 07:41:00,
2013-12-14 01:46:00,35.7,33.9,29.83,ENE,78,0.0,3.0,93,0.16,,---,0.22,VWS V14.01,2013-12-14 07:46:00,
2013-12-14 01:51:00,35.7,33.9,29.83,NNW,329,0.0,3.0,93,0.17,,---,0.23,VWS V14.01,2013-12-14 07:51:00,
2013-12-14 01:56:00,35.6,33.8,29.83,NNW,329,2.0,3.0,93,0.18,,---,0.24,VWS V14.01,2013-12-14 07:56:00,
2013-12-14 02:01:00,35.7,33.9,29.84,NNW,329,0.0,3.0,93,0.19,,---,0.25,VWS V14.01,2013-12-14 08:01:00,
2013-12-14 02:07:00,35.7,33.9,29.84,NNW,329,0.0,0.0,93,0.14,,---,0.26,VWS V14.01,2013-12-14 08:07:00,
2013-12-14 02:12:00,35.7,33.9,29.84,NNW,329,0.0,0.0,93,0.15,,---,0.27,VWS V14.01,2013-12-14 08:12:00,
2013-12-14 02:17:00,35.7,33.9,29.83,NNW,329,0.0,0.0,93,0.16,,---,0.28,VWS V14.01,2013-12-14 08:17:00,
2013-12-14 02:22:00,35.8,34.0,29.83,NNW,329,0.0,1.0,93,0.17,,---,0.29,VWS V14.01,2013-12-14 08:22:00,
2013-12-14 02:27:00,35.8,34.0,29.83,NNW,329,0.0,1.0,93,0.18,,---,0.30,VWS V14.01,2013-12-14 08:27:00,
2013-12-14 02:32:00,35.9,34.1,29.82,NNW,329,0.0,1.0,93,0.19,,---,0.31,VWS V14.01,2013-12-14 08:32:00,
2013-12-14 02:37:00,35.8,34.0,29.82,NNW,329,0.0,0.0,93,0.13,,---,0.32,VWS V14.01,2013-12-14 08:37:00,
2013-12-14 02:42:00,35.9,34.1,29.82,NNW,329,0.0,0.0,93,0.14,,---,0.33,VWS V14.01,2013-12-14 08:42:00,
2013-12-14 02:47:00,35.9,34.1,29.82,NNW,329,0.0,1.0,93,0.15,,---,0.34,VWS V14.01,2013-12-14 08:47:00,
2013-12-14 02:52:00,35.9,34.1,29.82,East,96,0.0,2.0,93,0.17,,---,0.36,VWS V14.01,2013-12-14 08:52:00,
2013-12-14 02:57:00,35.9,34.1,29.82,East,96,0.0,2.0,93,0.18,,---,0.37,VWS V14.01,2013-12-14 08:57:00,
2013-12-14 03:02:00,35.8,34.0,29.80,East,87,1.0,2.0,93,0.18,,---,0.37,VWS V14.01,2013-12-14 09:02:00,
2013-12-14 03:07:00,35.9,34.1,29.80,East,89,0.0,4.0,93,0.13,,---,0.38,VWS V14.01,2013-12-14 09:07:00,
2013-12-14 03:12:00,35.9,34.1,29.80,ENE,75,2.0,4.0,93,0.14,,---,0.39,VWS V14.01,2013-12-14 09:12:00,
2013-12-14 03:17:00,35.9,34.3,29.76,East,88,2.0,5.0,94,0.15,,---,0.40,VWS V14.01,2013-12-14 09:17:00,
2013-12-14 03:22:00,35.9,34.3,29.76,East,88,0.0,5.0,94,0.16,,---,0.41,VWS V14.01,2013-12-14 09:22:00,
2013-12-14 03:27:00,35.9,34.3,29.76,East,94,0.0,5.0,94,0.17,,---,0.42,VWS V14.01,2013-12-14 09:27:00,
2013-12-14 03:32:00,36.0,34.4,29.75,East,100,2.0,5.0,94,0.17,,---,0.42,VWS V14.01,2013-12-14 09:32:00,
2013-12-14 03:37:00,36.2,34.6,29.75,ESE,105,2.0,6.0,94,0.12,,---,0.43,VWS V14.01,2013-12-14 09:37:00,
2013-12-14 03:42:00,36.3,34.7,29.75,ENE,78,2.0,10.0,94,0.12,,---,0.43,VWS V14.01,2013-12-14 09:42:00,
2013-12-14 03:47:00,36.4,34.8,29.72,East,94,1.0,10.0,94,0.13,,---,0.44,VWS V14.01,2013-12-14 09:47:00,
2013-12-14 03:52:00,36.4,34.8,29.72,ESE,115,4.0,10.0,94,0.14,,---,0.45,VWS V14.01,2013-12-14 09:52:00,
2013-12-14 03:57:00,36.5,34.9,29.72,East,96,0.0,10.0,94,0.15,,---,0.46,VWS V14.01,2013-12-14 09:57:00,
2013-12-14 04:02:00,36.5,34.9,29.71,ESE,103,0.0,10.0,94,0.16,,---,0.47,VWS V14.01,2013-12-14 10:02:00,
2013-12-14 04:07:00,36.7,35.1,29.71,ESE,115,2.0,5.0,94,0.11,,---,0.48,VWS V14.01,2013-12-14 10:07:00,
2013-12-14 04:12:00,36.8,35.2,29.71,East,84,0.0,10.0,94,0.12,,---,0.49,VWS V14.01,2013-12-14 10:12:00,
2013-12-14 04:17:00,36.9,35.3,29.71,East,100,0.0,10.0,94,0.15,,---,0.52,VWS V14.01,2013-12-14 10:17:00,
2013-12-14 04:22:00,36.9,35.3,29.71,ESE,109,4.0,10.0,94,0.17,,---,0.54,VWS V14.01,2013-12-14 10:22:00,
2013-12-14 04:27:00,36.9,35.3,29.71,SE,132,2.0,10.0,94,0.18,,---,0.55,VWS V14.01,2013-12-14 10:27:00,
2013-12-14 04:32:00,37.0,35.4,29.68,East,90,5.0,10.0,94,0.19,,---,0.56,VWS V14.01,2013-12-14 10:32:00,
2013-12-14 04:37:00,37.1,35.5,29.68,ESE,109,4.0,13.0,94,0.14,,---,0.56,VWS V14.01,2013-12-14 10:37:00,
2013-12-14 04:42:00,37.2,35.6,29.68,SSE,150,0.0,13.0,94,0.15,,---,0.57,VWS V14.01,2013-12-14 10:42:00,
2013-12-14 04:47:00,37.4,35.8,29.67,SE,126,3.0,13.0,94,0.16,,---,0.58,VWS V14.01,2013-12-14 10:47:00,
2013-12-14 04:52:00,37.5,35.9,29.67,SE,137,2.0,13.0,94,0.16,,---,0.58,VWS V14.01,2013-12-14 10:52:00,
2013-12-14 04:57:00,37.5,35.9,29.67,South,172,0.0,13.0,94,0.16,,---,0.58,VWS V14.01,2013-12-14 10:57:00,
2013-12-14 05:02:00,37.6,36.0,29.69,South,176,0.0,13.0,94,0.16,,---,0.58,VWS V14.01,2013-12-14 11:02:00,
2013-12-14 05:07:00,37.7,36.4,29.69,South,178,2.0,3.0,95,0.11,,---,0.58,VWS V14.01,2013-12-14 11:07:00,
2013-12-14 05:12:00,37.8,36.5,29.69,South,177,0.0,3.0,95,0.12,,---,0.59,VWS V14.01,2013-12-14 11:12:00,
2013-12-14 05:17:00,37.8,36.5,29.68,South,178,0.0,3.0,95,0.12,,---,0.59,VWS V14.01,2013-12-14 11:17:00,
2013-12-14 05:22:00,37.8,36.2,29.68,WNW,286,5.0,5.0,94,0.12,,---,0.59,VWS V14.01,2013-12-14 11:22:00,
2013-12-14 05:27:00,37.8,36.5,29.68,WSW,248,1.0,7.0,95,0.14,,---,0.61,VWS V14.01,2013-12-14 11:27:00,
2013-12-14 05:32:00,37.8,36.5,29.70,WSW,246,0.0,7.0,95,0.16,,---,0.63,VWS V14.01,2013-12-14 11:32:00,
2013-12-14 05:37:00,37.9,36.6,29.70,South,182,0.0,4.0,95,0.08,,---,0.64,VWS V14.01,2013-12-14 11:37:00,
2013-12-14 05:42:00,37.9,36.6,29.70,WSW,253,0.0,4.0,95,0.08,,---,0.64,VWS V14.01,2013-12-14 11:42:00,
2013-12-14 05:47:00,37.9,36.6,29.70,WSW,252,0.0,4.0,95,0.09,,---,0.65,VWS V14.01,2013-12-14 11:47:00,
2013-12-14 05:52:00,37.9,36.6,29.70,WSW,252,0.0,4.0,95,0.09,,---,0.65,VWS V14.01,2013-12-14 11:52:00,
2013-12-14 05:57:00,37.9,36.6,29.70,WSW,252,0.0,4.0,95,0.09,,---,0.65,VWS V14.01,2013-12-14 11:57:00,
2013-12-14 06:02:00,37.9,36.6,29.70,WSW,253,0.0,4.0,95,0.09,,---,0.65,VWS V14.01,2013-12-14 12:02:00,
2013-12-14 06:07:00,37.9,36.6,29.70,WSW,253,0.0,0.0,95,0.08,,---,0.66,VWS V14.01,2013-12-14 12:07:00,
2013-12-14 06:12:00,37.9,36.6,29.70,WSW,252,0.0,0.0,95,0.08,,---,0.66,VWS V14.01,2013-12-14 12:12:00,
2013-12-14 06:17:00,37.8,36.5,29.70,WSW,252,0.0,0.0,95,0.08,,---,0.66,VWS V14.01,2013-12-14 12:17:00,
2013-12-14 06:22:00,37.8,36.5,29.70,WSW,253,0.0,0.0,95,0.08,,---,0.66,VWS V14.01,2013-12-14 12:22:00,
2013-12-14 06:27:00,37.9,36.6,29.70,WSW,253,0.0,0.0,95,0.08,,---,0.66,VWS V14.01,2013-12-14 12:27:00,
2013-12-14 06:32:00,37.9,36.6,29.70,WSW,253,0.0,0.0,95,0.08,,---,0.66,VWS V14.01,2013-12-14 12:32:00,
2013-12-14 06:37:00,37.8,36.5,29.70,WSW,253,0.0,0.0,95,0.03,,---,0.66,VWS V14.01,2013-12-14 12:37:00,
2013-12-14 06:42:00,37.8,36.5,29.70,WSW,253,0.0,0.0,95,0.04,,---,0.67,VWS V14.01,2013-12-14 12:42:00,
2013-12-14 06:47:00,37.7,36.4,29.69,WSW,252,0.0,0.0,95,0.04,,---,0.67,VWS V14.01,2013-12-14 12:47:00,
2013-12-14 06:52:00,37.7,36.4,29.69,WSW,253,0.0,0.0,95,0.04,,---,0.67,VWS V14.01,2013-12-14 12:52:00,
2013-12-14 06:57:00,37.7,36.4,29.69,WSW,253,0.0,0.0,95,0.04,,---,0.67,VWS V14.01,2013-12-14 12:57:00,
2013-12-14 07:02:00,37.8,36.5,29.70,WSW,252,0.0,0.0,95,0.04,,---,0.67,VWS V14.01,2013-12-14 13:02:00,
2013-12-14 07:07:00,37.7,36.4,29.70,WSW,252,2.0,2.0,95,0.02,,---,0.67,VWS V14.01,2013-12-14 13:07:00,
2013-12-14 07:12:00,37.7,36.4,29.70,WSW,254,1.0,2.0,95,0.02,,---,0.67,VWS V14.01,2013-12-14 13:12:00,
2013-12-14 07:17:00,37.5,35.9,29.71,WSW,254,0.0,2.0,94,0.02,,---,0.67,VWS V14.01,2013-12-14 13:17:00,
2013-12-14 07:22:00,37.4,35.8,29.71,WSW,254,0.0,2.0,94,0.02,,---,0.67,VWS V14.01,2013-12-14 13:22:00,
2013-12-14 07:27:00,37.4,35.8,29.71,WSW,253,0.0,2.0,94,0.02,,---,0.67,VWS V14.01,2013-12-14 13:27:00,
2013-12-14 07:32:00,37.5,35.9,29.71,WSW,252,0.0,2.0,94,0.03,,---,0.68,VWS V14.01,2013-12-14 13:32:00,
2013-12-14 07:37:00,37.5,36.2,29.71,WSW,254,0.0,0.0,95,0.02,,---,0.68,VWS V14.01,2013-12-14 13:37:00,
2013-12-14 07:42:00,37.5,36.2,29.71,WSW,253,0.0,0.0,95,0.02,,---,0.68,VWS V14.01,2013-12-14 13:42:00,
2013-12-14 07:47:00,37.6,36.3,29.70,WSW,252,0.0,0.0,95,0.02,,---,0.68,VWS V14.01,2013-12-14 13:47:00,
2013-12-14 07:52:00,37.7,36.4,29.70,WSW,254,0.0,0.0,95,0.02,,---,0.68,VWS V14.01,2013-12-14 13:52:00,
2013-12-14 07:57:00,37.8,36.5,29.70,WSW,252,0.0,0.0,95,0.02,,---,0.68,VWS V14.01,2013-12-14 13:57:00,
2013-12-14 08:02:00,37.9,36.6,29.70,WSW,253,0.0,0.0,95,0.02,,---,0.68,VWS V14.01,2013-12-14 14:02:00,
2013-12-14 08:07:00,38.0,36.7,29.70,WSW,252,0.0,0.0,95,0.01,,---,0.68,VWS V14.01,2013-12-14 14:07:00,
2013-12-14 08:12:00,38.0,36.7,29.70,WSW,252,0.0,0.0,95,0.01,,---,0.68,VWS V14.01,2013-12-14 14:12:00,
2013-12-14 08:17:00,38.2,36.9,29.69,WSW,254,0.0,0.0,95,0.02,,---,0.69,VWS V14.01,2013-12-14 14:17:00,
2013-12-14 08:22:00,38.3,37.0,29.69,WSW,252,0.0,0.0,95,0.02,,---,0.69,VWS V14.01,2013-12-14 14:22:00,
2013-12-14 08:27:00,38.4,37.1,29.69,WSW,252,0.0,0.0,95,0.02,,---,0.69,VWS V14.01,2013-12-14 14:27:00,
2013-12-14 08:32:00,38.5,37.2,29.70,WSW,251,0.0,1.0,95,0.02,,---,0.69,VWS V14.01,2013-12-14 14:32:00,
2013-12-14 08:37:00,38.4,37.1,29.70,WSW,254,0.0,2.0,95,0.01,,---,0.69,VWS V14.01,2013-12-14 14:37:00,
2013-12-14 08:42:00,38.4,37.1,29.70,WSW,254,0.0,2.0,95,0.01,,---,0.69,VWS V14.01,2013-12-14 14:42:00,
2013-12-14 08:47:00,38.3,37.0,29.71,WSW,252,0.0,2.0,95,0.01,,---,0.69,VWS V14.01,2013-12-14 14:47:00,
2013-12-14 08:52:00,38.4,37.1,29.71,WSW,252,0.0,2.0,95,0.01,,---,0.69,VWS V14.01,2013-12-14 14:52:00,
2013-12-14 08:57:00,38.5,37.2,29.71,WSW,252,2.0,2.0,95,0.01,,---,0.69,VWS V14.01,2013-12-14 14:57:00,
2013-12-14 09:02:00,38.6,37.3,29.71,WSW,254,0.0,2.0,95,0.02,,---,0.70,VWS V14.01,2013-12-14 15:02:00,
2013-12-14 09:07:00,38.6,37.3,29.71,WSW,254,0.0,0.0,95,0.02,,---,0.70,VWS V14.01,2013-12-14 15:07:00,
2013-12-14 09:12:00,38.7,37.4,29.71,WSW,252,0.0,0.0,95,0.02,,---,0.70,VWS V14.01,2013-12-14 15:12:00,
2013-12-14 09:17:00,38.7,37.4,29.71,WSW,251,0.0,1.0,95,0.02,,---,0.70,VWS V14.01,2013-12-14 15:17:00,
2013-12-14 09:22:00,38.8,37.5,29.71,WSW,252,0.0,1.0,95,0.02,,---,0.70,VWS V14.01,2013-12-14 15:22:00,
2013-12-14 09:27:00,38.8,37.5,29.71,WSW,252,0.0,1.0,95,0.03,,---,0.71,VWS V14.01,2013-12-14 15:27:00,
2013-12-14 09:32:00,38.9,37.6,29.71,WSW,254,0.0,1.0,95,0.03,,---,0.71,VWS V14.01,2013-12-14 15:32:00,
2013-12-14 09:37:00,39.0,37.7,29.71,WSW,252,2.0,2.0,95,0.02,,---,0.71,VWS V14.01,2013-12-14 15:37:00,
2013-12-14 09:42:00,39.1,37.8,29.71,WSW,254,0.0,4.0,95,0.02,,---,0.71,VWS V14.01,2013-12-14 15:42:00,
2013-12-14 09:47:00,39.3,38.0,29.71,WSW,253,2.0,4.0,95,0.02,,---,0.71,VWS V14.01,2013-12-14 15:47:00,
2013-12-14 09:52:00,39.4,38.1,29.71,WSW,253,0.0,4.0,95,0.02,,---,0.71,VWS V14.01,2013-12-14 15:52:00,
2013-12-14 09:57:00,39.6,38.3,29.71,WSW,254,1.0,4.0,95,0.02,,---,0.71,VWS V14.01,2013-12-14 15:57:00,
2013-12-14 10:02:00,39.7,38.4,29.71,WSW,242,2.0,4.0,95,0.02,,---,0.71,VWS V14.01,2013-12-14 16:02:00,
2013-12-14 10:07:00,39.8,38.5,29.71,WSW,250,2.0,4.0,95,0.01,,---,0.71,VWS V14.01,2013-12-14 16:07:00,
2013-12-14 10:12:00,39.8,38.5,29.71,WSW,253,3.0,6.0,95,0.02,,---,0.72,VWS V14.01,2013-12-14 16:12:00,
2013-12-14 10:17:00,40.0,38.7,29.71,WSW,253,1.0,6.0,95,0.02,,---,0.72,VWS V14.01,2013-12-14 16:17:00,
2013-12-14 10:22:00,40.1,38.8,29.71,West,274,4.0,6.0,95,0.02,,---,0.72,VWS V14.01,2013-12-14 16:22:00,
2013-12-14 10:27:00,40.2,38.9,29.71,West,269,5.0,11.0,95,0.02,,---,0.72,VWS V14.01,2013-12-14 16:27:00,
2013-12-14 10:32:00,40.2,38.9,29.70,West,271,3.0,12.0,95,0.02,,---,0.72,VWS V14.01,2013-12-14 16:32:00,
2013-12-14 10:37:00,40.2,38.9,29.70,WSW,249,6.0,12.0,95,0.01,,---,0.72,VWS V14.01,2013-12-14 16:37:00,
2013-12-14 10:42:00,40.1,38.8,29.70,West,279,7.0,15.0,95,0.02,,---,0.73,VWS V14.01,2013-12-14 16:42:00,
2013-12-14 10:47:00,40.0,38.7,29.71,WNW,301,7.0,15.0,95,0.02,,---,0.73,VWS V14.01,2013-12-14 16:47:00,
2013-12-14 10:52:00,39.9,38.6,29.71,WNW,287,18.0,18.0,95,0.02,,---,0.73,VWS V14.01,2013-12-14 16:52:00,
2013-12-14 10:57:00,39.7,38.4,29.71,West,273,5.0,18.0,95,0.02,,---,0.73,VWS V14.01,2013-12-14 16:57:00,
2013-12-14 11:02:00,39.5,38.2,29.71,WNW,298,9.0,18.0,95,0.02,,---,0.73,VWS V14.01,2013-12-14 17:02:00,
2013-12-14 11:07:00,39.3,38.0,29.71,West,266,7.0,18.0,95,0.03,,---,0.74,VWS V14.01,2013-12-14 17:07:00,
2013-12-14 11:12:00,39.2,37.9,29.71,West,262,10.0,18.0,95,0.03,,---,0.74,VWS V14.01,2013-12-14 17:12:00,
2013-12-14 11:17:00,39.1,37.8,29.71,West,266,10.0,18.0,95,0.03,,---,0.74,VWS V14.01,2013-12-14 17:17:00,
2013-12-14 11:22:00,39.0,37.7,29.71,West,275,3.0,18.0,95,0.03,,---,0.74,VWS V14.01,2013-12-14 17:22:00,
2013-12-14 11:27:00,39.0,37.7,29.71,West,261,3.0,18.0,95,0.03,,---,0.74,VWS V14.01,2013-12-14 17:27:00,
2013-12-14 11:32:00,38.8,37.2,29.71,West,269,6.0,18.0,94,0.03,,---,0.74,VWS V14.01,2013-12-14 17:32:00,
2013-12-14 11:37:00,38.7,37.1,29.71,West,268,7.0,13.0,94,0.02,,---,0.74,VWS V14.01,2013-12-14 17:37:00,
2013-12-14 11:42:00,38.6,37.0,29.71,WNW,296,10.0,13.0,94,0.03,,---,0.75,VWS V14.01,2013-12-14 17:42:00,
2013-12-14 11:47:00,38.4,36.8,29.71,West,278,4.0,13.0,94,0.03,,---,0.75,VWS V14.01,2013-12-14 17:47:00,
2013-12-14 11:52:00,38.3,36.7,29.71,WNW,290,8.0,14.0,94,0.03,,---,0.75,VWS V14.01,2013-12-14 17:52:00,
2013-12-14 11:57:00,38.2,36.4,29.71,North,355,4.0,14.0,93,0.03,,---,0.75,VWS V14.01,2013-12-14 17:57:00,
2013-12-14 12:02:00,38.2,36.4,29.72,WNW,287,5.0,14.0,93,0.03,,---,0.75,VWS V14.01,2013-12-14 18:02:00,
2013-12-14 12:07:00,38.0,36.2,29.72,WSW,244,4.0,12.0,93,0.02,,---,0.75,VWS V14.01,2013-12-14 18:07:00,
2013-12-14 12:12:00,38.0,36.2,29.72,WNW,284,9.0,12.0,93,0.02,,---,0.75,VWS V14.01,2013-12-14 18:12:00,
2013-12-14 12:17:00,38.0,36.2,29.71,WNW,282,7.0,12.0,93,0.02,,---,0.75,VWS V14.01,2013-12-14 18:17:00,
2013-12-14 12:22:00,38.0,36.2,29.71,West,261,7.0,12.0,93,0.02,,---,0.75,VWS V14.01,2013-12-14 18:22:00,
2013-12-14 12:27:00,37.9,36.1,29.71,West,266,8.0,14.0,93,0.02,,---,0.75,VWS V14.01,2013-12-14 18:27:00,
2013-12-14 12:32:00,37.9,36.1,29.72,WNW,295,6.0,14.0,93,0.02,,---,0.75,VWS V14.01,2013-12-14 18:32:00,
2013-12-14 12:37:00,38.0,35.9,29.72,NW,304,4.0,10.0,92,0.02,,---,0.76,VWS V14.01,2013-12-14 18:37:00,
2013-12-14 12:42:00,38.2,36.1,29.72,WNW,294,3.0,10.0,92,0.02,,---,0.76,VWS V14.01,2013-12-14 18:42:00,
2013-12-14 12:47:00,38.3,36.2,29.72,West,260,2.0,10.0,92,0.02,,---,0.76,VWS V14.01,2013-12-14 18:47:00,
2013-12-14 12:52:00,38.3,36.2,29.72,West,280,4.0,10.0,92,0.02,,---,0.76,VWS V14.01,2013-12-14 18:52:00,
2013-12-14 12:57:00,38.0,35.9,29.72,West,274,5.0,12.0,92,0.02,,---,0.76,VWS V14.01,2013-12-14 18:57:00,
2013-12-14 13:02:00,38.0,35.9,29.73,WNW,302,8.0,12.0,92,0.02,,---,0.76,VWS V14.01,2013-12-14 19:02:00,
2013-12-14 13:07:00,37.9,35.5,29.73,West,279,8.0,13.0,91,0.01,,---,0.76,VWS V14.01,2013-12-14 19:07:00,
2013-12-14 13:12:00,37.9,35.5,29.73,West,281,7.0,13.0,91,0.01,,---,0.76,VWS V14.01,2013-12-14 19:12:00,
2013-12-14 13:17:00,37.8,35.4,29.73,West,279,9.0,13.0,91,0.01,,---,0.76,VWS V14.01,2013-12-14 19:17:00,
2013-12-14 13:22:00,37.7,35.3,29.73,WNW,300,7.0,15.0,91,0.01,,---,0.76,VWS V14.01,2013-12-14 19:22:00,
2013-12-14 13:27:00,37.7,35.3,29.73,WNW,283,1.0,15.0,91,0.01,,---,0.76,VWS V14.01,2013-12-14 19:27:00,
2013-12-14 13:32:00,37.7,35.0,29.74,West,279,4.0,15.0,90,0.01,,---,0.76,VWS V14.01,2013-12-14 19:32:00,
2013-12-14 13:37:00,37.7,35.0,29.74,NW,304,6.0,10.0,90,0.01,,---,0.76,VWS V14.01,2013-12-14 19:37:00,
2013-12-14 13:42:00,37.6,34.9,29.74,West,267,6.0,13.0,90,0.02,,---,0.77,VWS V14.01,2013-12-14 19:42:00,
2013-12-14 13:47:00,37.5,34.6,29.74,WSW,255,4.0,15.0,89,0.02,,---,0.77,VWS V14.01,2013-12-14 19:47:00,
2013-12-14 13:52:00,37.5,34.6,29.74,WNW,292,4.0,15.0,89,0.02,,---,0.77,VWS V14.01,2013-12-14 19:52:00,
2013-12-14 13:57:00,37.5,34.6,29.74,NW,308,2.0,15.0,89,0.02,,---,0.77,VWS V14.01,2013-12-14 19:57:00,
2013-12-14 14:02:00,37.5,34.8,29.74,WNW,296,0.0,15.0,90,0.02,,---,0.77,VWS V14.01,2013-12-14 20:02:00,
2013-12-14 14:07:00,37.5,34.8,29.74,West,268,2.0,11.0,90,0.01,,---,0.77,VWS V14.01,2013-12-14 20:07:00,
2013-12-14 14:12:00,37.5,34.8,29.74,WNW,290,4.0,11.0,90,0.01,,---,0.77,VWS V14.01,2013-12-14 20:12:00,
2013-12-14 14:17:00,37.4,34.7,29.76,WNW,292,9.0,11.0,90,0.01,,---,0.77,VWS V14.01,2013-12-14 20:17:00,
2013-12-14 14:22:00,37.2,34.3,29.76,WNW,289,4.0,12.0,89,0.01,,---,0.77,VWS V14.01,2013-12-14 20:22:00,
2013-12-14 14:27:00,37.0,34.1,29.76,NW,313,6.0,15.0,89,0.01,,---,0.77,VWS V14.01,2013-12-14 20:27:00,
2013-12-14 14:32:00,36.9,34.0,29.76,West,259,5.0,15.0,89,0.01,,---,0.77,VWS V14.01,2013-12-14 20:32:00,
2013-12-14 14:37:00,36.8,33.9,29.76,WNW,302,2.0,10.0,89,0.01,,---,0.77,VWS V14.01,2013-12-14 20:37:00,
2013-12-14 14:42:00,36.8,33.9,29.76,West,275,5.0,13.0,89,0.01,,---,0.77,VWS V14.01,2013-12-14 20:42:00,
2013-12-14 14:47:00,36.7,33.5,29.77,WNW,294,4.0,14.0,88,0.01,,---,0.77,VWS V14.01,2013-12-14 20:47:00,
2013-12-14 14:52:00,36.6,33.4,29.77,WNW,294,6.0,14.0,88,0.01,,---,0.77,VWS V14.01,2013-12-14 20:52:00,
2013-12-14 14:57:00,36.6,33.4,29.77,West,278,4.0,14.0,88,0.01,,---,0.77,VWS V14.01,2013-12-14 20:57:00,
2013-12-14 15:02:00,36.6,33.4,29.77,WNW,296,0.0,14.0,88,0.01,,---,0.77,VWS V14.01,2013-12-14 21:02:00,
2013-12-14 15:07:00,36.5,33.3,29.77,WNW,282,0.0,10.0,88,0.00,,---,0.77,VWS V14.01,2013-12-14 21:07:00,
2013-12-14 15:12:00,36.5,33.3,29.77,NW,306,3.0,12.0,88,0.00,,---,0.77,VWS V14.01,2013-12-14 21:12:00,
2013-12-14 15:17:00,36.4,33.2,29.79,WNW,295,10.0,14.0,88,0.00,,---,0.77,VWS V14.01,2013-12-14 21:17:00,
2013-12-14 15:22:00,36.4,33.2,29.79,WNW,294,11.0,14.0,88,0.00,,---,0.77,VWS V14.01,2013-12-14 21:22:00,
2013-12-14 15:27:00,36.4,33.2,29.79,WNW,290,4.0,14.0,88,0.00,,---,0.77,VWS V14.01,2013-12-14 21:27:00,
2013-12-14 15:32:00,36.3,33.1,29.80,WNW,300,4.0,14.0,88,0.00,,---,0.77,VWS V14.01,2013-12-14 21:32:00,
2013-12-14 15:37:00,36.3,32.8,29.80,West,273,7.0,10.0,87,0.00,,---,0.77,VWS V14.01,2013-12-14 21:37:00,
2013-12-14 15:42:00,36.2,32.7,29.80,NW,304,2.0,12.0,87,0.01,,---,0.78,VWS V14.01,2013-12-14 21:42:00,
2013-12-14 15:47:00,36.2,33.0,29.80,West,275,5.0,12.0,88,0.01,,---,0.78,VWS V14.01,2013-12-14 21:47:00,
2013-12-14 15:52:00,36.1,32.9,29.80,West,277,3.0,12.0,88,0.01,,---,0.78,VWS V14.01,2013-12-14 21:52:00,
2013-12-14 15:57:00,36.1,32.9,29.80,WNW,289,0.0,12.0,88,0.01,,---,0.78,VWS V14.01,2013-12-14 21:57:00,
2013-12-14 16:02:00,36.0,32.8,29.81,NW,313,1.0,12.0,88,0.01,,---,0.78,VWS V14.01,2013-12-14 22:02:00,
2013-12-14 16:07:00,36.0,32.8,29.81,WNW,294,5.0,13.0,88,0.01,,---,0.78,VWS V14.01,2013-12-14 22:07:00,
2013-12-14 16:12:00,35.9,32.7,29.81,WNW,302,6.0,13.0,88,0.01,,---,0.78,VWS V14.01,2013-12-14 22:12:00,
2013-12-14 16:17:00,35.9,32.7,29.81,WNW,291,2.0,13.0,88,0.01,,---,0.78,VWS V14.01,2013-12-14 22:17:00,
2013-12-14 16:22:00,35.8,32.6,29.81,West,272,0.0,13.0,88,0.01,,---,0.78,VWS V14.01,2013-12-14 22:22:00,
2013-12-14 16:27:00,35.7,32.5,29.81,WNW,283,5.0,13.0,88,0.01,,---,0.78,VWS V14.01,2013-12-14 22:27:00,
2013-12-14 16:32:00,35.7,32.5,29.82,WNW,284,4.0,13.0,88,0.01,,---,0.78,VWS V14.01,2013-12-14 22:32:00,
2013-12-14 16:37:00,35.6,32.4,29.82,WNW,285,3.0,7.0,88,0.01,,---,0.78,VWS V14.01,2013-12-14 22:37:00,
2013-12-14 16:42:00,35.6,32.4,29.82,West,273,10.0,10.0,88,0.01,,---,0.78,VWS V14.01,2013-12-14 22:42:00,
2013-12-14 16:47:00,35.5,32.3,29.82,NW,310,6.0,13.0,88,0.01,,---,0.78,VWS V14.01,2013-12-14 22:47:00,
2013-12-14 16:52:00,35.5,32.3,29.82,WNW,298,0.0,13.0,88,0.01,,---,0.78,VWS V14.01,2013-12-14 22:52:00,
2013-12-14 16:57:00,35.5,32.3,29.82,West,272,6.0,13.0,88,0.01,,---,0.78,VWS V14.01,2013-12-14 22:57:00,
2013-12-14 17:02:00,35.5,32.3,29.82,West,272,2.0,13.0,88,0.01,,---,0.78,VWS V14.01,2013-12-14 23:02:00,
2013-12-14 17:07:00,35.4,32.2,29.82,West,269,3.0,7.0,88,0.00,,---,0.78,VWS V14.01,2013-12-14 23:07:00,
2013-12-14 17:12:00,35.4,32.2,29.82,WSW,240,2.0,7.0,88,0.00,,---,0.78,VWS V14.01,2013-12-14 23:12:00,
2013-12-14 17:17:00,35.4,32.2,29.83,WNW,295,2.0,7.0,88,0.00,,---,0.78,VWS V14.01,2013-12-14 23:17:00,
2013-12-14 17:22:00,35.4,32.2,29.83,West,277,5.0,12.0,88,0.00,,---,0.78,VWS V14.01,2013-12-14 23:22:00,
2013-12-14 17:27:00,35.4,32.2,29.83,WSW,246,3.0,12.0,88,0.00,,---,0.78,VWS V14.01,2013-12-14 23:27:00,
2013-12-14 17:32:00,35.3,32.1,29.84,WNW,303,0.0,12.0,88,0.00,,---,0.78,VWS V14.01,2013-12-14 23:32:00,
2013-12-14 17:37:00,35.4,32.2,29.84,WNW,290,4.0,12.0,88,0.00,,---,0.78,VWS V14.01,2013-12-14 23:37:00,
2013-12-14 17:42:00,35.4,32.2,29.84,WNW,290,3.0,12.0,88,0.00,,---,0.78,VWS V14.01,2013-12-14 23:42:00,
2013-12-14 17:47:00,35.3,32.1,29.84,WNW,287,4.0,12.0,88,0.00,,---,0.78,VWS V14.01,2013-12-14 23:47:00,
2013-12-14 17:52:00,35.3,32.1,29.84,NW,314,4.0,12.0,88,0.00,,---,0.78,VWS V14.01,2013-12-14 23:52:00,
2013-12-14 17:57:00,35.3,32.1,29.84,WNW,292,2.0,12.0,88,0.00,,---,0.78,VWS V14.01,2013-12-14 23:57:00,
2013-12-14 18:02:00,35.3,32.1,29.85,WNW,299,4.0,12.0,88,0.00,,---,0.78,VWS V14.01,2013-12-15 00:02:00,
2013-12-14 18:07:00,35.3,32.1,29.85,WNW,284,0.0,5.0,88,0.00,,---,0.78,VWS V14.01,2013-12-15 00:07:00,
2013-12-14 18:12:00,35.3,32.1,29.85,WNW,296,5.0,7.0,88,0.00,,---,0.78,VWS V14.01,2013-12-15 00:12:00,
2013-12-14 18:17:00,35.3,32.1,29.86,WNW,290,4.0,7.0,88,0.00,,---,0.78,VWS V14.01,2013-12-15 00:17:00,
2013-12-14 18:22:00,35.3,32.1,29.86,NW,316,1.0,7.0,88,0.00,,---,0.78,VWS V14.01,2013-12-15 00:22:00,
2013-12-14 18:27:00,35.3,32.1,29.86,WNW,295,13.0,13.0,88,0.00,,---,0.78,VWS V14.01,2013-12-15 00:27:00,
2013-12-14 18:32:00,35.4,31.9,29.87,NW,321,1.0,13.0,87,0.00,,---,0.78,VWS V14.01,2013-12-15 00:32:00,
2013-12-14 18:37:00,35.4,31.9,29.87,North,5,1.0,13.0,87,0.00,,---,0.78,VWS V14.01,2013-12-15 00:37:00,
2013-12-14 18:42:00,35.4,31.9,29.87,WNW,300,1.0,13.0,87,0.00,,---,0.78,VWS V14.01,2013-12-15 00:42:00,
2013-12-14 18:47:00,35.3,31.8,29.87,West,278,6.0,13.0,87,0.00,,---,0.78,VWS V14.01,2013-12-15 00:47:00,
2013-12-14 18:52:00,35.3,31.8,29.87,WSW,257,6.0,13.0,87,0.00,,---,0.78,VWS V14.01,2013-12-15 00:52:00,
2013-12-14 18:57:00,35.2,31.7,29.87,NNW,331,0.0,14.0,87,0.00,,---,0.78,VWS V14.01,2013-12-15 00:57:00,
2013-12-14 19:02:00,35.1,31.6,29.88,WNW,285,9.0,14.0,87,0.00,,---,0.78,VWS V14.01,2013-12-15 01:02:00,
2013-12-14 19:07:00,35.1,31.6,29.88,WNW,287,8.0,8.0,87,0.00,,---,0.78,VWS V14.01,2013-12-15 01:07:00,
2013-12-14 19:12:00,35.0,31.5,29.88,NW,304,4.0,9.0,87,0.00,,---,0.78,VWS V14.01,2013-12-15 01:12:00,
2013-12-14 19:17:00,35.0,31.5,29.88,NW,312,5.0,11.0,87,0.00,,---,0.78,VWS V14.01,2013-12-15 01:17:00,
2013-12-14 19:22:00,35.0,31.2,29.88,WNW,282,6.0,14.0,86,0.00,,---,0.78,VWS V14.01,2013-12-15 01:22:00,
2013-12-14 19:27:00,35.0,31.2,29.88,NW,306,7.0,15.0,86,0.00,,---,0.78,VWS V14.01,2013-12-15 01:27:00,
2013-12-14 19:32:00,35.0,31.2,29.88,WNW,291,5.0,15.0,86,0.00,,---,0.78,VWS V14.01,2013-12-15 01:32:00,
2013-12-14 19:37:00,35.0,31.2,29.88,WNW,302,0.0,9.0,86,0.00,,---,0.78,VWS V14.01,2013-12-15 01:37:00,
2013-12-14 19:42:00,34.9,31.1,29.88,WNW,286,3.0,9.0,86,0.00,,---,0.78,VWS V14.01,2013-12-15 01:42:00,
2013-12-14 19:47:00,34.9,31.1,29.90,WNW,296,3.0,9.0,86,0.00,,---,0.78,VWS V14.01,2013-12-15 01:47:00,
2013-12-14 19:52:00,34.9,31.1,29.90,WNW,284,1.0,9.0,86,0.00,,---,0.78,VWS V14.01,2013-12-15 01:52:00,
2013-12-14 19:57:00,34.8,31.0,29.90,WNW,298,0.0,9.0,86,0.00,,---,0.78,VWS V14.01,2013-12-15 01:57:00,
2013-12-14 20:02:00,34.8,31.0,29.90,NW,309,2.0,9.0,86,0.00,,---,0.78,VWS V14.01,2013-12-15 02:02:00,
2013-12-14 20:07:00,34.8,31.0,29.90,NNW,345,5.0,7.0,86,0.00,,---,0.78,VWS V14.01,2013-12-15 02:07:00,
2013-12-14 20:12:00,34.8,31.3,29.90,NW,311,1.0,7.0,87,0.00,,---,0.78,VWS V14.01,2013-12-15 02:12:00,
2013-12-14 20:17:00,34.8,31.3,29.91,NW,311,0.0,7.0,87,0.00,,---,0.78,VWS V14.01,2013-12-15 02:17:00,
2013-12-14 20:22:00,34.8,31.3,29.91,NW,304,0.0,12.0,87,0.00,,---,0.78,VWS V14.01,2013-12-15 02:22:00,
2013-12-14 20:27:00,34.7,31.2,29.91,WNW,302,2.0,13.0,87,0.00,,---,0.78,VWS V14.01,2013-12-15 02:27:00,
2013-12-14 20:32:00,34.6,31.1,29.91,WNW,301,1.0,13.0,87,0.00,,---,0.78,VWS V14.01,2013-12-15 02:32:00,
2013-12-14 20:37:00,34.5,31.0,29.91,West,267,5.0,6.0,87,0.00,,---,0.78,VWS V14.01,2013-12-15 02:37:00,
2013-12-14 20:42:00,34.4,31.2,29.91,NE,40,3.0,7.0,88,0.00,,---,0.78,VWS V14.01,2013-12-15 02:42:00,
2013-12-14 20:47:00,34.4,31.2,29.92,WNW,283,4.0,9.0,88,0.00,,---,0.78,VWS V14.01,2013-12-15 02:47:00,
2013-12-14 20:52:00,34.4,31.2,29.92,NNW,329,8.0,11.0,88,0.00,,---,0.78,VWS V14.01,2013-12-15 02:52:00,
2013-12-14 20:57:00,34.4,31.2,29.92,WNW,294,3.0,14.0,88,0.00,,---,0.78,VWS V14.01,2013-12-15 02:57:00,
2013-12-14 21:02:00,34.4,31.2,29.93,NW,304,2.0,14.0,88,0.00,,---,0.78,VWS V14.01,2013-12-15 03:02:00,
2013-12-14 21:07:00,34.3,30.8,29.93,West,279,3.0,10.0,87,0.00,,---,0.78,VWS V14.01,2013-12-15 03:07:00,
2013-12-14 21:12:00,34.2,30.7,29.93,North,5,13.0,14.0,87,0.00,,---,0.78,VWS V14.01,2013-12-15 03:12:00,
2013-12-14 21:17:00,34.2,30.7,29.93,North,355,3.0,15.0,87,0.00,,---,0.78,VWS V14.01,2013-12-15 03:17:00,
2013-12-14 21:22:00,34.2,30.7,29.93,North,351,3.0,15.0,87,0.00,,---,0.78,VWS V14.01,2013-12-15 03:22:00,
2013-12-14 21:27:00,34.2,30.7,29.93,NW,306,3.0,15.0,87,0.00,,---,0.78,VWS V14.01,2013-12-15 03:27:00,
2013-12-14 21:32:00,34.2,30.5,29.94,West,275,2.0,15.0,86,0.00,,---,0.78,VWS V14.01,2013-12-15 03:32:00,
2013-12-14 21:37:00,34.1,30.4,29.94,NW,323,4.0,15.0,86,0.00,,---,0.78,VWS V14.01,2013-12-15 03:37:00,
2013-12-14 21:42:00,34.1,30.4,29.94,WNW,290,7.0,15.0,86,0.00,,---,0.78,VWS V14.01,2013-12-15 03:42:00,
2013-12-14 21:47:00,34.1,30.4,29.95,WNW,282,0.0,15.0,86,0.00,,---,0.78,VWS V14.01,2013-12-15 03:47:00,
2013-12-14 21:52:00,34.0,30.3,29.95,WNW,302,5.0,16.0,86,0.00,,---,0.78,VWS V14.01,2013-12-15 03:52:00,
2013-12-14 21:57:00,33.9,29.9,29.95,WNW,303,7.0,16.0,85,0.00,,---,0.78,VWS V14.01,2013-12-15 03:57:00,
2013-12-14 22:02:00,33.9,29.9,29.95,NNW,337,0.0,16.0,85,0.00,,---,0.78,VWS V14.01,2013-12-15 04:02:00,
2013-12-14 22:07:00,33.9,29.9,29.95,NW,317,0.0,7.0,85,0.00,,---,0.78,VWS V14.01,2013-12-15 04:07:00,
2013-12-14 22:12:00,33.8,29.8,29.95,North,5,3.0,10.0,85,0.00,,---,0.78,VWS V14.01,2013-12-15 04:12:00,
2013-12-14 22:17:00,33.8,29.8,29.96,NW,319,2.0,11.0,85,0.00,,---,0.78,VWS V14.01,2013-12-15 04:17:00,
2013-12-14 22:22:00,33.8,29.8,29.96,NNW,341,3.0,11.0,85,0.00,,---,0.78,VWS V14.01,2013-12-15 04:22:00,
2013-12-14 22:27:00,33.7,29.7,29.96,NNW,345,3.0,11.0,85,0.00,,---,0.78,VWS V14.01,2013-12-15 04:27:00,
2013-12-14 22:32:00,33.7,30.0,29.96,WNW,300,4.0,11.0,86,0.00,,---,0.78,VWS V14.01,2013-12-15 04:32:00,
2013-12-14 22:37:00,33.6,29.9,29.96,WNW,297,2.0,9.0,86,0.00,,---,0.78,VWS V14.01,2013-12-15 04:37:00,
2013-12-14 22:42:00,33.4,30.0,29.96,NNW,344,2.0,11.0,87,0.00,,---,0.78,VWS V14.01,2013-12-15 04:42:00,
2013-12-14 22:47:00,33.3,29.9,29.96,NNE,13,0.0,11.0,87,0.00,,---,0.78,VWS V14.01,2013-12-15 04:47:00,
2013-12-14 22:52:00,33.2,29.8,29.96,SSW,211,4.0,15.0,87,0.00,,---,0.78,VWS V14.01,2013-12-15 04:52:00,
2013-12-14 22:57:00,33.1,29.7,29.96,NW,325,2.0,15.0,87,0.00,,---,0.78,VWS V14.01,2013-12-15 04:57:00,
2013-12-14 23:01:00,33.0,29.6,29.96,WNW,287,2.0,15.0,87,0.00,,---,0.78,VWS V14.01,2013-12-15 05:01:00,
2013-12-14 23:06:00,32.9,29.7,29.97,NW,309,4.0,15.0,88,0.00,,---,0.78,VWS V14.01,2013-12-15 05:06:00,
2013-12-14 23:11:00,32.7,29.5,29.97,WNW,286,6.0,15.0,88,0.00,,---,0.78,VWS V14.01,2013-12-15 05:11:00,
2013-12-14 23:16:00,32.5,29.4,29.97,WNW,292,5.0,15.0,88,0.00,,---,0.78,VWS V14.01,2013-12-15 05:16:00,
2013-12-14 23:21:00,32.4,29.2,29.97,NW,325,5.0,15.0,88,0.00,,---,0.78,VWS V14.01,2013-12-15 05:21:00,
2013-12-14 23:26:00,32.3,29.1,29.97,NW,309,1.0,15.0,88,0.00,,---,0.78,VWS V14.01,2013-12-15 05:26:00,
2013-12-14 23:31:00,32.1,29.0,29.98,WNW,295,12.0,15.0,88,0.00,,---,0.78,VWS V14.01,2013-12-15 05:31:00,
2013-12-14 23:36:00,32.0,28.9,29.98,WNW,294,3.0,12.0,88,0.00,,---,0.78,VWS V14.01,2013-12-15 05:36:00,
2013-12-14 23:41:00,32.0,28.9,29.98,West,281,6.0,13.0,88,0.00,,---,0.78,VWS V14.01,2013-12-15 05:41:00,
2013-12-14 23:46:00,32.0,28.9,29.98,WNW,296,3.0,13.0,88,0.00,,---,0.78,VWS V14.01,2013-12-15 05:46:00,
2013-12-14 23:51:00,31.9,28.8,29.98,WNW,303,3.0,13.0,88,0.00,,---,0.78,VWS V14.01,2013-12-15 05:51:00,
2013-12-14 23:56:00,31.9,28.8,29.98,NW,324,6.0,13.0,88,0.00,,---,0.78,VWS V14.01,2013-12-15 05:56:00,